SAS9141 LFBO-EKCH

Flight info

Callsign SAS9141
Flight time 2h 21m
Altitude 39000
Route FISTO DCT PERIG DCT ADABI DCT BOKNO UN858 VANAD UN874 ARSAF DCT EGOZE DCT CMB DCT VEKIN DCT ADUTO N873 JUIST DCT DOSUR P729 TUDLO
Aircraft A20N/M-SDE3FGIJ1RWXY/ALB1

Departure

Time 2026-04-23 22:49
Airport Toulouse-Blagnac Airport (LFBO)

Arrival

Time 2026-04-24 01:11
Airport Copenhagen Kastrup Airport (EKCH)
Time Latitude Longitude Altitude Speed Heading
2026-04-23 22:21 43.63359 1.35018 507 ft 0 kts 232°
2026-04-23 22:39 43.63365 1.35029 507 ft 2 kts 232°
2026-04-23 22:39 43.63374 1.35045 508 ft 2 kts 232°
2026-04-23 22:40 43.63383 1.35062 508 ft 2 kts 232°
2026-04-23 22:40 43.63392 1.35078 508 ft 2 kts 232°
2026-04-23 22:40 43.63411 1.35111 508 ft 2 kts 233°
2026-04-23 22:41 43.63413 1.35129 508 ft 2 kts 289°
2026-04-23 22:41 43.63409 1.35140 508 ft 0 kts 320°
2026-04-23 22:41 43.63402 1.35146 508 ft 0 kts 323°
2026-04-23 22:44 43.63408 1.35140 508 ft 2 kts 323°
2026-04-23 22:45 43.63426 1.35121 507 ft 4 kts 322°
2026-04-23 22:45 43.63455 1.35091 508 ft 6 kts 322°
2026-04-23 22:45 43.63495 1.35048 507 ft 8 kts 321°
2026-04-23 22:45 43.63549 1.34990 507 ft 11 kts 322°
2026-04-23 22:46 43.63619 1.34940 507 ft 11 kts 14°
2026-04-23 22:46 43.63683 1.35017 508 ft 12 kts 25°
2026-04-23 22:46 43.63759 1.34962 507 ft 13 kts 322°
2026-04-23 22:46 43.63838 1.34881 507 ft 14 kts 323°
2026-04-23 22:47 43.63923 1.34793 507 ft 15 kts 321°
2026-04-23 22:47 43.64011 1.34699 507 ft 16 kts 323°
2026-04-23 22:47 43.64103 1.34605 507 ft 15 kts 323°
2026-04-23 22:47 43.64193 1.34514 507 ft 16 kts 324°
2026-04-23 22:48 43.64289 1.34442 507 ft 14 kts
2026-04-23 22:48 43.64343 1.34496 507 ft 8 kts 50°
2026-04-23 22:48 43.64376 1.34568 507 ft 9 kts 65°
2026-04-23 22:48 43.64366 1.34643 507 ft 3 kts 142°
2026-04-23 22:49 43.64363 1.34646 507 ft 3 kts 142°
2026-04-23 22:49 43.64105 1.34913 508 ft 92 kts 142°
2026-04-23 22:49 43.63392 1.35647 623 ft 151 kts 141°
2026-04-23 22:49 43.62563 1.36375 1563 ft 142 kts 157°
2026-04-23 22:50 43.61563 1.36404 2228 ft 161 kts 191°
2026-04-23 22:50 43.60560 1.35504 2767 ft 193 kts 228°
2026-04-23 22:50 43.60183 1.33599 3341 ft 224 kts 272°
2026-04-23 22:50 43.60826 1.31590 3901 ft 249 kts 314°
2026-04-23 22:51 43.62373 1.30378 4503 ft 271 kts 351°
2026-04-23 22:51 43.64260 1.30474 5444 ft 278 kts 10°
2026-04-23 22:51 43.66182 1.30789 6534 ft 283 kts
2026-04-23 22:51 43.68115 1.30812 7821 ft 282 kts 358°
2026-04-23 22:52 43.70046 1.30700 8986 ft 283 kts 357°
2026-04-23 22:52 43.72022 1.30541 10124 ft 286 kts 356°
2026-04-23 22:52 43.74026 1.30357 11065 ft 295 kts 355°
2026-04-23 22:52 43.76173 1.30145 11749 ft 314 kts 355°
2026-04-23 22:53 43.78405 1.29918 12500 ft 328 kts 354°
2026-04-23 22:53 43.80686 1.29684 13506 ft 333 kts 354°
2026-04-23 22:53 43.82996 1.29443 14512 ft 336 kts 354°
2026-04-23 22:53 43.85320 1.29200 15467 ft 340 kts 354°
2026-04-23 22:54 43.87669 1.28953 16388 ft 345 kts 354°
2026-04-23 22:54 43.90055 1.28702 17275 ft 349 kts 354°
2026-04-23 22:54 43.92484 1.28445 18156 ft 353 kts 354°
2026-04-23 22:54 43.94952 1.28185 19006 ft 357 kts 354°
2026-04-23 22:55 43.97411 1.27927 19846 ft 360 kts 353°
2026-04-23 22:55 43.99914 1.27664 20678 ft 364 kts 353°
2026-04-23 22:55 44.02445 1.27397 21486 ft 367 kts 353°
2026-04-23 22:55 44.04969 1.27130 22260 ft 370 kts 353°
2026-04-23 22:56 44.07553 1.26857 23024 ft 373 kts 353°
2026-04-23 22:56 44.10145 1.26582 23759 ft 376 kts 353°
2026-04-23 22:56 44.12751 1.26305 24454 ft 380 kts 353°
2026-04-23 22:56 44.15407 1.26022 25139 ft 383 kts 353°
2026-04-23 22:57 44.18094 1.25736 25823 ft 387 kts 353°
2026-04-23 22:57 44.20788 1.25449 26455 ft 390 kts 353°
2026-04-23 22:57 44.23499 1.25162 27069 ft 394 kts 353°
2026-04-23 22:57 44.26237 1.24870 27664 ft 397 kts 353°
2026-04-23 22:58 44.29000 1.24576 28244 ft 400 kts 353°
2026-04-23 22:58 44.31764 1.24281 28794 ft 404 kts 353°
2026-04-23 22:58 44.34583 1.23980 29331 ft 407 kts 353°
2026-04-23 22:58 44.37393 1.23679 29863 ft 410 kts 353°
2026-04-23 22:59 44.40253 1.23373 30380 ft 413 kts 353°
2026-04-23 22:59 44.43121 1.23004 30871 ft 415 kts 351°
2026-04-23 22:59 44.45942 1.22430 31400 ft 415 kts 348°
2026-04-23 22:59 44.48838 1.21614 32048 ft 413 kts 345°
2026-04-23 23:00 44.51638 1.20614 32667 ft 411 kts 343°
2026-04-23 23:00 44.54467 1.19525 33251 ft 410 kts 342°
2026-04-23 23:00 44.57232 1.18446 33815 ft 409 kts 342°
2026-04-23 23:00 44.59992 1.17365 34360 ft 408 kts 342°
2026-04-23 23:01 44.62716 1.16298 34926 ft 407 kts 342°
2026-04-23 23:01 44.65477 1.15217 35497 ft 406 kts 342°
2026-04-23 23:01 44.68173 1.14160 36041 ft 404 kts 342°
2026-04-23 23:01 44.70932 1.13078 36570 ft 403 kts 342°
2026-04-23 23:02 44.73640 1.12016 37056 ft 402 kts 342°
2026-04-23 23:02 44.76412 1.10927 37513 ft 401 kts 343°
2026-04-23 23:02 44.79142 1.09854 37881 ft 402 kts 343°
2026-04-23 23:02 44.81914 1.08763 38183 ft 404 kts 343°
2026-04-23 23:03 44.84638 1.07692 38464 ft 406 kts 343°
2026-04-23 23:03 44.87377 1.06611 38749 ft 407 kts 343°
2026-04-23 23:03 44.90129 1.05526 39030 ft 409 kts 343°
2026-04-23 23:04 44.95686 1.03331 39087 ft 410 kts 343°
2026-04-23 23:04 45.01242 1.01134 39096 ft 411 kts 343°
2026-04-23 23:05 45.06842 0.98916 39093 ft 411 kts 343°
2026-04-23 23:05 45.12457 0.96777 39092 ft 411 kts 346°
2026-04-23 23:06 45.18131 0.95064 39097 ft 411 kts 347°
2026-04-23 23:06 45.23804 0.93392 39099 ft 411 kts 347°
2026-04-23 23:07 45.29446 0.91720 39095 ft 411 kts 347°
2026-04-23 23:07 45.35158 0.90019 39097 ft 410 kts 347°
2026-04-23 23:08 45.40826 0.88327 39099 ft 410 kts 347°
2026-04-23 23:08 45.46525 0.86621 39104 ft 410 kts 347°
2026-04-23 23:09 45.52208 0.84917 39104 ft 410 kts 347°
2026-04-23 23:09 45.57885 0.83212 39110 ft 410 kts 347°
2026-04-23 23:10 45.63538 0.81510 39106 ft 410 kts 347°
2026-04-23 23:10 45.69253 0.79786 39109 ft 410 kts 347°
2026-04-23 23:11 45.74916 0.78074 39102 ft 410 kts 347°
2026-04-23 23:11 45.80495 0.76384 39106 ft 410 kts 346°
2026-04-23 23:12 45.86144 0.74667 39100 ft 410 kts 347°
2026-04-23 23:12 45.91817 0.72940 39105 ft 410 kts 347°
2026-04-23 23:13 45.97524 0.71200 39107 ft 410 kts 347°
2026-04-23 23:13 46.03242 0.69454 39109 ft 410 kts 347°
2026-04-23 23:14 46.08873 0.67729 39112 ft 410 kts 347°
2026-04-23 23:14 46.14523 0.65996 39100 ft 410 kts 347°
2026-04-23 23:15 46.20123 0.64274 39120 ft 410 kts 347°
2026-04-23 23:15 46.25812 0.62521 39114 ft 410 kts 347°
2026-04-23 23:16 46.31468 0.60773 39128 ft 410 kts 347°
2026-04-23 23:16 46.37122 0.59023 39118 ft 410 kts 347°
2026-04-23 23:17 46.42745 0.57279 39128 ft 410 kts 347°
2026-04-23 23:17 46.48430 0.55539 39124 ft 410 kts 348°
2026-04-23 23:18 46.54177 0.54594 39120 ft 411 kts 356°
2026-04-23 23:18 46.60000 0.54836 39126 ft 413 kts
2026-04-23 23:19 46.65793 0.56262 39123 ft 414 kts 11°
2026-04-23 23:19 46.71444 0.58127 39131 ft 415 kts 11°
2026-04-23 23:20 46.77143 0.60025 39125 ft 415 kts 11°
2026-04-23 23:20 46.82801 0.61905 39136 ft 414 kts 11°
2026-04-23 23:21 46.88556 0.63817 39137 ft 414 kts 11°
2026-04-23 23:21 46.94323 0.65736 39127 ft 414 kts 11°
2026-04-23 23:22 46.99957 0.67615 39137 ft 414 kts 11°
2026-04-23 23:22 47.05677 0.69174 39146 ft 412 kts
2026-04-23 23:23 47.11425 0.69923 39152 ft 412 kts
2026-04-23 23:23 47.17215 0.70514 39163 ft 412 kts
2026-04-23 23:24 47.22993 0.71106 39160 ft 412 kts
2026-04-23 23:24 47.28745 0.71702 39166 ft 412 kts
2026-04-23 23:25 47.34552 0.72309 39166 ft 412 kts
2026-04-23 23:25 47.40295 0.72912 39172 ft 412 kts
2026-04-23 23:26 47.46149 0.73657 39176 ft 414 kts
2026-04-23 23:26 47.51843 0.75238 39176 ft 415 kts 12°
2026-04-23 23:27 47.57385 0.77699 39168 ft 416 kts 16°
2026-04-23 23:27 47.62817 0.80383 39176 ft 415 kts 17°
2026-04-23 23:28 47.68285 0.83091 39169 ft 415 kts 17°
2026-04-23 23:28 47.73761 0.85801 39178 ft 416 kts 17°
2026-04-23 23:29 47.79262 0.88528 39179 ft 417 kts 17°
2026-04-23 23:29 47.84839 0.91301 39184 ft 417 kts 17°
2026-04-23 23:30 47.90361 0.94086 39176 ft 416 kts 17°
2026-04-23 23:30 47.95883 0.96880 39181 ft 416 kts 17°
2026-04-23 23:31 48.01370 0.99664 39188 ft 416 kts 17°
2026-04-23 23:31 48.06916 1.02481 39195 ft 417 kts 17°
2026-04-23 23:32 48.12521 1.05336 39190 ft 419 kts 17°
2026-04-23 23:32 48.18136 1.08203 39196 ft 419 kts 17°
2026-04-23 23:33 48.23747 1.11067 39200 ft 419 kts 17°
2026-04-23 23:33 48.29355 1.13923 39208 ft 418 kts 17°
2026-04-23 23:34 48.34943 1.16775 39215 ft 419 kts 17°
2026-04-23 23:34 48.40552 1.19646 39143 ft 421 kts 17°
2026-04-23 23:34 48.43389 1.21102 39258 ft 422 kts 17°
2026-04-23 23:35 48.46188 1.22541 39235 ft 423 kts 17°
2026-04-23 23:35 48.51900 1.25479 39243 ft 423 kts 17°
2026-04-23 23:36 48.57563 1.28378 39210 ft 423 kts 17°
2026-04-23 23:36 48.63191 1.31205 39232 ft 422 kts 17°
2026-04-23 23:37 48.68863 1.34062 39237 ft 424 kts 17°
2026-04-23 23:37 48.74526 1.36925 39240 ft 426 kts 17°
2026-04-23 23:38 48.80288 1.39848 39241 ft 429 kts 17°
2026-04-23 23:38 48.86072 1.42789 39243 ft 430 kts 17°
2026-04-23 23:39 48.91874 1.45971 39246 ft 432 kts 22°
2026-04-23 23:39 48.97311 1.50540 39251 ft 435 kts 33°
2026-04-23 23:40 49.02082 1.56494 39255 ft 437 kts 45°
2026-04-23 23:40 49.06238 1.63404 39265 ft 436 kts 49°
2026-04-23 23:41 49.10281 1.70423 39261 ft 435 kts 50°
2026-04-23 23:41 49.14318 1.77404 39270 ft 434 kts 50°
2026-04-23 23:42 49.18378 1.84418 39270 ft 434 kts 50°
2026-04-23 23:42 49.22401 1.91377 39271 ft 434 kts 50°
2026-04-23 23:43 49.26464 1.98432 39281 ft 433 kts 50°
2026-04-23 23:43 49.30510 2.05473 39273 ft 433 kts 50°
2026-04-23 23:44 49.34543 2.12504 39290 ft 433 kts 51°
2026-04-23 23:44 49.38579 2.19562 39288 ft 433 kts 51°
2026-04-23 23:45 49.42574 2.26572 39284 ft 433 kts 51°
2026-04-23 23:45 49.46568 2.33599 39283 ft 434 kts 51°
2026-04-23 23:46 49.50555 2.40627 39296 ft 434 kts 51°
2026-04-23 23:46 49.54899 2.47344 39287 ft 436 kts 44°
2026-04-23 23:47 49.59655 2.53146 39280 ft 439 kts 37°
2026-04-23 23:47 49.64871 2.58330 39292 ft 440 kts 34°
2026-04-23 23:48 49.70174 2.63435 39337 ft 440 kts 34°
2026-04-23 23:48 49.75435 2.68529 39296 ft 440 kts 35°
2026-04-23 23:49 49.83321 2.76210 39295 ft 440 kts 36°
2026-04-23 23:49 49.88549 2.81323 39303 ft 440 kts 36°
2026-04-23 23:50 49.93685 2.86360 39312 ft 440 kts 36°
2026-04-23 23:50 49.98850 2.91436 39300 ft 440 kts 36°
2026-04-23 23:51 50.03855 2.96371 39305 ft 440 kts 36°
2026-04-23 23:51 50.09002 3.01457 39307 ft 440 kts 36°
2026-04-23 23:52 50.14174 3.06581 39295 ft 440 kts 36°
2026-04-23 23:52 50.19316 3.11690 39303 ft 439 kts 36°
2026-04-23 23:53 50.24649 3.16424 39308 ft 442 kts 29°
2026-04-23 23:53 50.30243 3.20420 39310 ft 443 kts 27°
2026-04-23 23:54 50.35831 3.24304 39314 ft 443 kts 27°
2026-04-23 23:54 50.41442 3.28310 39318 ft 442 kts 29°
2026-04-23 23:55 50.46902 3.32568 39320 ft 442 kts 30°
2026-04-23 23:55 50.52411 3.36817 39320 ft 443 kts 27°
2026-04-23 23:56 50.58038 3.40713 39323 ft 444 kts 26°
2026-04-23 23:56 50.63707 3.44596 39326 ft 443 kts 26°
2026-04-23 23:57 50.69322 3.48467 39332 ft 443 kts 26°
2026-04-23 23:57 50.74936 3.52354 39330 ft 443 kts 26°
2026-04-23 23:58 50.80588 3.56279 39335 ft 443 kts 26°
2026-04-23 23:58 50.86179 3.60172 39337 ft 442 kts 26°
2026-04-23 23:59 50.91821 3.64114 39338 ft 442 kts 26°
2026-04-23 23:59 50.97425 3.68124 39337 ft 442 kts 28°
2026-04-24 00:00 51.03045 3.72175 39329 ft 443 kts 27°
2026-04-24 00:00 51.08756 3.76296 39325 ft 443 kts 27°
2026-04-24 00:01 51.14428 3.80397 39330 ft 444 kts 27°
2026-04-24 00:01 51.20020 3.84451 39329 ft 443 kts 27°
2026-04-24 00:02 51.25541 3.88465 39334 ft 442 kts 27°
2026-04-24 00:03 51.36203 3.96273 39352 ft 444 kts 27°
2026-04-24 00:03 51.41893 4.00456 39359 ft 444 kts 27°
2026-04-24 00:04 51.47512 4.04599 39358 ft 444 kts 27°
2026-04-24 00:04 51.53136 4.08757 39358 ft 444 kts 27°
2026-04-24 00:05 51.58757 4.12922 39361 ft 444 kts 27°
2026-04-24 00:05 51.64372 4.17095 39371 ft 444 kts 27°
2026-04-24 00:06 51.69969 4.21266 39361 ft 444 kts 27°
2026-04-24 00:06 51.75526 4.25419 39355 ft 444 kts 27°
2026-04-24 00:07 51.80811 4.29384 39352 ft 444 kts 27°
2026-04-24 00:07 51.87050 4.34078 39356 ft 444 kts 27°
2026-04-24 00:08 51.91751 4.37627 39349 ft 443 kts 27°
2026-04-24 00:08 51.98271 4.42561 39354 ft 443 kts 27°
2026-04-24 00:09 52.03827 4.46780 39350 ft 443 kts 27°
2026-04-24 00:09 52.08484 4.50321 39354 ft 443 kts 27°
2026-04-24 00:10 52.14960 4.55262 39349 ft 442 kts 27°
2026-04-24 00:10 52.20527 4.59521 39351 ft 443 kts 26°
2026-04-24 00:11 52.25184 4.63094 39347 ft 443 kts 27°
2026-04-24 00:11 52.31663 4.68078 39352 ft 443 kts 27°
2026-04-24 00:12 52.37151 4.72311 39349 ft 443 kts 27°
2026-04-24 00:12 52.41744 4.75865 39345 ft 443 kts 27°
2026-04-24 00:13 52.47256 4.80190 39339 ft 443 kts 30°
2026-04-24 00:13 52.52401 4.85446 39340 ft 440 kts 39°
2026-04-24 00:14 52.56934 4.91928 39338 ft 437 kts 48°
2026-04-24 00:14 52.60844 4.99482 39345 ft 436 kts 54°
2026-04-24 00:15 52.64567 5.07360 39343 ft 436 kts 54°
2026-04-24 00:15 52.68253 5.15111 39343 ft 436 kts 54°
2026-04-24 00:16 52.71959 5.22902 39342 ft 437 kts 54°
2026-04-24 00:16 52.75620 5.30619 39342 ft 437 kts 54°
2026-04-24 00:17 52.79301 5.38397 39339 ft 438 kts 53°
2026-04-24 00:17 52.82991 5.46230 39336 ft 438 kts 53°
2026-04-24 00:18 52.86158 5.52974 39335 ft 438 kts 53°
2026-04-24 00:18 52.90664 5.62597 39333 ft 437 kts 53°
2026-04-24 00:19 52.94389 5.70581 39334 ft 437 kts 54°
2026-04-24 00:19 52.98135 5.78644 39330 ft 438 kts 54°
2026-04-24 00:20 53.01882 5.86728 39330 ft 438 kts 54°
2026-04-24 00:20 53.05557 5.94686 39326 ft 438 kts 54°
2026-04-24 00:21 53.09288 6.02791 39324 ft 438 kts 53°
2026-04-24 00:21 53.12983 6.10841 39321 ft 438 kts 53°
2026-04-24 00:22 53.16603 6.18751 39319 ft 439 kts 53°
2026-04-24 00:22 53.20276 6.26806 39315 ft 438 kts 53°
2026-04-24 00:23 53.23840 6.34643 39313 ft 438 kts 53°
2026-04-24 00:23 53.27481 6.42674 39312 ft 439 kts 53°
2026-04-24 00:24 53.31093 6.50678 39304 ft 439 kts 53°
2026-04-24 00:24 53.34517 6.57866 39297 ft 439 kts 48°
2026-04-24 00:25 53.38866 6.65243 39290 ft 439 kts 43°
2026-04-24 00:25 53.43328 6.72056 39288 ft 439 kts 42°
2026-04-24 00:26 53.47593 6.78596 39285 ft 439 kts 43°
2026-04-24 00:26 53.52221 6.85750 39281 ft 439 kts 43°
2026-04-24 00:27 53.56610 6.92605 39276 ft 439 kts 44°
2026-04-24 00:27 53.60914 6.99775 39272 ft 439 kts 44°
2026-04-24 00:28 53.65163 7.06942 39276 ft 439 kts 44°
2026-04-24 00:28 53.68697 7.12913 39272 ft 439 kts 44°
2026-04-24 00:29 53.73581 7.21174 39267 ft 440 kts 44°
2026-04-24 00:29 53.77898 7.28502 39262 ft 440 kts 44°
2026-04-24 00:30 53.82206 7.35838 39249 ft 440 kts 44°
2026-04-24 00:30 53.86523 7.43209 39250 ft 440 kts 44°
2026-04-24 00:31 53.90844 7.50606 39247 ft 440 kts 44°
2026-04-24 00:31 53.95158 7.58016 39242 ft 440 kts 44°
2026-04-24 00:32 53.99419 7.65358 39239 ft 440 kts 44°
2026-04-24 00:32 54.03713 7.72782 39235 ft 440 kts 44°
2026-04-24 00:33 54.08012 7.80241 39232 ft 441 kts 44°
2026-04-24 00:33 54.12309 7.87715 39226 ft 441 kts 44°
2026-04-24 00:34 54.16640 7.95273 39224 ft 441 kts 44°
2026-04-24 00:34 54.20984 8.02877 39219 ft 441 kts 44°
2026-04-24 00:35 54.25330 8.10508 39216 ft 441 kts 44°
2026-04-24 00:35 54.29654 8.18126 39215 ft 441 kts 44°
2026-04-24 00:36 54.33880 8.25598 39209 ft 440 kts 44°
2026-04-24 00:36 54.38074 8.33035 39205 ft 440 kts 44°
2026-04-24 00:37 54.42299 8.40552 39197 ft 440 kts 43°
2026-04-24 00:37 54.46596 8.48215 39195 ft 440 kts 43°
2026-04-24 00:38 54.50818 8.55776 39184 ft 440 kts 43°
2026-04-24 00:38 54.55100 8.63462 39184 ft 440 kts 43°
2026-04-24 00:39 54.59297 8.71024 39183 ft 440 kts 44°
2026-04-24 00:39 54.63453 8.78536 39174 ft 439 kts 44°
2026-04-24 00:40 54.67706 8.86244 39167 ft 439 kts 44°
2026-04-24 00:40 54.71898 8.93872 39157 ft 439 kts 43°
2026-04-24 00:41 54.76078 9.01498 39154 ft 438 kts 43°
2026-04-24 00:41 54.80289 9.09207 39141 ft 439 kts 43°
2026-04-24 00:42 54.84457 9.16864 39142 ft 438 kts 43°
2026-04-24 00:42 54.88576 9.24681 39141 ft 439 kts 45°
2026-04-24 00:43 54.92565 9.32599 39144 ft 439 kts 45°
2026-04-24 00:43 54.96571 9.40547 39143 ft 438 kts 45°
2026-04-24 00:44 55.00593 9.48527 39138 ft 438 kts 45°
2026-04-24 00:44 55.02587 9.52492 38887 ft 437 kts 45°
2026-04-24 00:44 55.04541 9.56378 37920 ft 445 kts 45°
2026-04-24 00:45 55.06542 9.60581 36791 ft 453 kts 49°
2026-04-24 00:45 55.08360 9.65020 35871 ft 456 kts 54°
2026-04-24 00:45 55.09998 9.69734 34978 ft 459 kts 58°
2026-04-24 00:45 55.11439 9.74705 34074 ft 462 kts 63°
2026-04-24 00:46 55.12672 9.79929 33290 ft 463 kts 67°
2026-04-24 00:46 55.13689 9.85247 32531 ft 463 kts 70°
2026-04-24 00:46 55.14647 9.90633 31762 ft 462 kts 70°
2026-04-24 00:46 55.15568 9.95894 31011 ft 460 kts 70°
2026-04-24 00:47 55.16486 10.01130 30255 ft 459 kts 70°
2026-04-24 00:47 55.17431 10.06512 29447 ft 456 kts 70°
2026-04-24 00:47 55.18373 10.11877 28883 ft 448 kts 70°
2026-04-24 00:47 55.19273 10.17004 28356 ft 441 kts 70°
2026-04-24 00:48 55.20171 10.22122 27813 ft 434 kts 70°
2026-04-24 00:48 55.21056 10.27172 27280 ft 429 kts 70°
2026-04-24 00:48 55.21927 10.32145 26753 ft 424 kts 70°
2026-04-24 00:48 55.22796 10.37122 26215 ft 419 kts 70°
2026-04-24 00:49 55.23649 10.42025 25674 ft 415 kts 70°
2026-04-24 00:49 55.24489 10.46868 25136 ft 411 kts 70°
2026-04-24 00:49 55.25319 10.51673 24613 ft 408 kts 70°
2026-04-24 00:49 55.26138 10.56425 24095 ft 404 kts 70°
2026-04-24 00:50 55.26964 10.61235 23555 ft 402 kts 70°
2026-04-24 00:50 55.27770 10.65930 23033 ft 399 kts 70°
2026-04-24 00:50 55.28559 10.70526 22509 ft 396 kts 70°
2026-04-24 00:50 55.29357 10.75170 21977 ft 393 kts 70°
2026-04-24 00:51 55.30138 10.79724 21451 ft 390 kts 70°
2026-04-24 00:51 55.30911 10.84244 20928 ft 388 kts 70°
2026-04-24 00:51 55.31672 10.88712 20400 ft 385 kts 70°
2026-04-24 00:51 55.32434 10.93204 19869 ft 382 kts 70°
2026-04-24 00:52 55.33184 10.97638 19348 ft 379 kts 70°
2026-04-24 00:52 55.33916 11.02017 18825 ft 377 kts 70°
2026-04-24 00:52 55.34648 11.06423 18298 ft 374 kts 70°
2026-04-24 00:52 55.35373 11.10795 17764 ft 371 kts 69°
2026-04-24 00:53 55.36098 11.15170 17234 ft 369 kts 69°
2026-04-24 00:53 55.36801 11.19428 16716 ft 366 kts 70°
2026-04-24 00:53 55.37505 11.23702 16191 ft 363 kts 69°
2026-04-24 00:53 55.38211 11.27997 15654 ft 361 kts 69°
2026-04-24 00:54 55.38902 11.32209 15131 ft 358 kts 69°
2026-04-24 00:54 55.39584 11.36371 14612 ft 355 kts 69°
2026-04-24 00:54 55.40259 11.40506 14096 ft 352 kts 69°
2026-04-24 00:54 55.40932 11.44643 13585 ft 350 kts 69°
2026-04-24 00:55 55.41597 11.48735 13074 ft 347 kts 69°
2026-04-24 00:55 55.42247 11.52756 12621 ft 342 kts 69°
2026-04-24 00:55 55.42890 11.56745 12322 ft 332 kts 69°
2026-04-24 00:55 55.43500 11.60506 12152 ft 317 kts 67°
2026-04-24 00:56 55.44314 11.63976 12016 ft 299 kts 57°
2026-04-24 00:56 55.45385 11.67057 12036 ft 293 kts 51°
2026-04-24 00:56 55.46287 11.69378 12053 ft 293 kts 50°
2026-04-24 00:56 55.47436 11.72286 12076 ft 293 kts 50°
2026-04-24 00:57 55.48598 11.75242 12074 ft 293 kts 51°
2026-04-24 00:57 55.49752 11.78199 12077 ft 293 kts 51°
2026-04-24 00:57 55.52037 11.84103 12089 ft 292 kts 51°
2026-04-24 00:58 55.53193 11.87100 12082 ft 292 kts 51°
2026-04-24 00:58 55.54321 11.90043 12064 ft 292 kts 51°
2026-04-24 00:58 55.55455 11.93012 11845 ft 294 kts 51°
2026-04-24 00:58 55.56590 11.95988 11396 ft 293 kts 51°
2026-04-24 00:59 55.57725 11.98968 10976 ft 291 kts 51°
2026-04-24 00:59 55.58846 12.01916 10575 ft 288 kts 51°
2026-04-24 00:59 55.59943 12.04807 10181 ft 286 kts 51°
2026-04-24 00:59 55.61059 12.07741 9796 ft 282 kts 50°
2026-04-24 01:00 55.62260 12.10432 9408 ft 276 kts 43°
2026-04-24 01:00 55.63607 12.12737 9025 ft 271 kts 37°
2026-04-24 01:00 55.65023 12.14899 8648 ft 267 kts 37°
2026-04-24 01:00 55.66443 12.17033 8273 ft 264 kts 37°
2026-04-24 01:01 55.67820 12.19147 7903 ft 262 kts 41°
2026-04-24 01:01 55.68770 12.21886 7518 ft 269 kts 70°
2026-04-24 01:01 55.68842 12.25211 7142 ft 277 kts 98°
2026-04-24 01:01 55.68008 12.28237 6773 ft 284 kts 127°
2026-04-24 01:02 55.66549 12.30581 6430 ft 283 kts 137°
2026-04-24 01:02 55.65016 12.32812 6068 ft 281 kts 137°
2026-04-24 01:02 55.63540 12.34982 5711 ft 278 kts 137°
2026-04-24 01:02 55.62042 12.37171 5349 ft 276 kts 141°
2026-04-24 01:03 55.60274 12.38456 4966 ft 279 kts 174°
2026-04-24 01:03 55.58410 12.37807 4827 ft 280 kts 208°
2026-04-24 01:03 55.56891 12.35734 4855 ft 280 kts 224°
2026-04-24 01:03 55.55445 12.33359 4746 ft 281 kts 224°
2026-04-24 01:04 55.53998 12.31019 4373 ft 280 kts 223°
2026-04-24 01:04 55.52581 12.28790 4175 ft 270 kts 223°
2026-04-24 01:04 55.51177 12.26675 4059 ft 258 kts 217°
2026-04-24 01:04 55.49580 12.25594 3923 ft 247 kts 180°
2026-04-24 01:05 55.47972 12.26468 3916 ft 238 kts 138°
2026-04-24 01:05 55.46885 12.28626 3715 ft 236 kts 123°
2026-04-24 01:05 55.45911 12.30950 3413 ft 235 kts 123°
2026-04-24 01:05 55.44916 12.33225 3123 ft 234 kts 123°
2026-04-24 01:06 55.44281 12.35743 2963 ft 217 kts 88°
2026-04-24 01:06 55.44650 12.38125 2833 ft 202 kts 52°
2026-04-24 01:06 55.45645 12.39796 2657 ft 194 kts 37°
2026-04-24 01:06 55.46680 12.41254 2479 ft 188 kts 37°
2026-04-24 01:07 55.47631 12.42641 2524 ft 167 kts 38°
2026-04-24 01:07 55.48470 12.43892 2478 ft 151 kts 38°
2026-04-24 01:07 55.49236 12.45051 2469 ft 145 kts 38°
2026-04-24 01:07 55.50024 12.46242 2453 ft 151 kts 38°
2026-04-24 01:08 55.50822 12.47459 2206 ft 152 kts 38°
2026-04-24 01:08 55.51615 12.48676 2009 ft 149 kts 38°
2026-04-24 01:08 55.52393 12.49866 1980 ft 150 kts 38°
2026-04-24 01:08 55.53186 12.51082 1977 ft 151 kts 38°
2026-04-24 01:09 55.53981 12.52301 1898 ft 148 kts 37°
2026-04-24 01:09 55.54724 12.53430 1538 ft 143 kts 38°
2026-04-24 01:09 55.55459 12.54629 1144 ft 148 kts 39°
2026-04-24 01:09 55.56260 12.55866 849 ft 154 kts 36°
2026-04-24 01:10 55.57095 12.57076 548 ft 156 kts 36°
2026-04-24 01:10 55.57885 12.58293 336 ft 145 kts 38°
2026-04-24 01:10 55.58598 12.59396 171 ft 128 kts 36°
2026-04-24 01:10 55.59266 12.60421 69 ft 127 kts 36°
2026-04-24 01:11 55.59916 12.61409 21 ft 113 kts 44°
2026-04-24 01:11 55.60407 12.62181 26 ft 70 kts 41°
2026-04-24 01:11 55.60656 12.62567 22 ft 36 kts 40°
2026-04-24 01:11 55.60858 12.62809 20 ft 34 kts 21°
2026-04-24 01:12 55.61080 12.62907 19 ft 29 kts 11°
2026-04-24 01:12 55.61241 12.63094 19 ft 27 kts 41°
2026-04-24 01:12 55.61385 12.63317 22 ft 26 kts 39°
2026-04-24 01:12 55.61519 12.63527 23 ft 25 kts 39°
2026-04-24 01:13 55.61656 12.63736 23 ft 25 kts 40°
2026-04-24 01:13 55.61789 12.63942 24 ft 25 kts 40°
2026-04-24 01:13 55.61927 12.64116 25 ft 23 kts 25°
2026-04-24 01:13 55.62076 12.64241 26 ft 23 kts 25°
2026-04-24 01:14 55.62218 12.64363 25 ft 19 kts 25°
2026-04-24 01:14 55.62344 12.64427 25 ft 16 kts 15°
2026-04-24 01:14 55.62378 12.64565 26 ft 16 kts 122°
2026-04-24 01:14 55.62313 12.64736 26 ft 17 kts 123°
2026-04-24 01:15 55.62243 12.64920 26 ft 18 kts 121°
2026-04-24 01:15 55.62183 12.65105 28 ft 16 kts 95°
2026-04-24 01:15 55.62272 12.65198 26 ft 14 kts 360°
2026-04-24 01:15 55.62376 12.65202 26 ft 15 kts 360°
2026-04-24 01:16 55.62441 12.65295 26 ft 15 kts 93°
2026-04-24 01:16 55.62441 12.65494 26 ft 16 kts 88°
2026-04-24 01:16 55.62445 12.65707 26 ft 18 kts 88°
2026-04-24 01:16 55.62447 12.65911 26 ft 13 kts 90°
2026-04-24 01:17 55.62486 12.66062 26 ft 14 kts 43°
2026-04-24 01:17 55.62567 12.66137 26 ft 13 kts 359°
2026-04-24 01:17 55.62632 12.66139 26 ft 9 kts 18°
2026-04-24 01:17 55.62685 12.66219 26 ft 11 kts 44°
2026-04-24 01:18 55.62742 12.66310 26 ft 7 kts 41°
2026-04-24 01:18 55.62775 12.66360 26 ft 6 kts 40°
2026-04-24 01:18 55.62815 12.66415 26 ft 8 kts 37°
2026-04-24 01:18 55.62861 12.66483 26 ft 7 kts 44°
2026-04-24 01:19 55.62895 12.66540 26 ft 5 kts 47°
2026-04-24 01:19 55.62879 12.66602 26 ft 7 kts 136°
2026-04-24 01:19 55.62853 12.66653 26 ft 5 kts 131°
2026-04-24 01:19 55.62847 12.66666 26 ft 0 kts 132°